• In Denmark
  • List of Countries
  • For 7 days
  • Water Temperature
  • Satellite Maps
  • Weather Map
  • Weather Widgets
  • user-avatar
    Login

    Hourly Weather Nazaret

    Today, 19 October, Friday

    Time Temperature Precipitation Wind Pressure Humidity
    00:00 +24°C° 1 mm 2 mps 728 mmHg 75%
    01:00 +24°C° 1 mm 2 mps 728 mmHg 74%
    02:00 +24°C° 1 mm 2 mps 728 mmHg 74%
    03:00 +24°C° 0 mm 2 mps 728 mmHg 75%
    04:00 +23°C° 0 mm 1 mps 727 mmHg 76%
    05:00 +23°C° 0 mm 1 mps 727 mmHg 77%
    06:00 +24°C° 0.3 mm 1 mps 728 mmHg 74%
    07:00 +24°C° 0.3 mm 2 mps 728 mmHg 72%
    08:00 +25°C° 0.3 mm 2 mps 728 mmHg 69%
    09:00 +26°C° 0.9 mm 2 mps 728 mmHg 65%
    10:00 +27°C° 0.9 mm 3 mps 729 mmHg 60%
    11:00 +28°C° 0.9 mm 3 mps 729 mmHg 56%
    12:00 +28°C° 0.2 mm 4 mps 729 mmHg 56%
    13:00 +28°C° 0.2 mm 4 mps 728 mmHg 56%
    14:00 +28°C° 0.2 mm 4 mps 728 mmHg 56%
    15:00 +27°C° 0.7 mm 4 mps 728 mmHg 60%
    16:00 +27°C° 0.7 mm 4 mps 728 mmHg 63%
    17:00 +26°C° 0.7 mm 3 mps 728 mmHg 67%
    18:00 +25°C° 0.5 mm 3 mps 728 mmHg 69%
    19:00 +25°C° 0.5 mm 2 mps 728 mmHg 71%
    20:00 +25°C° 0.5 mm 2 mps 728 mmHg 74%
    21:00 +24°C° 0.1 mm 1 mps 728 mmHg 75%
    22:00 +24°C° 0.1 mm 1 mps 728 mmHg 77%
    23:00 +24°C° 0.1 mm 1 mps 728 mmHg 78%

    Tomorrow, 20 October, Saturday

    Time Temperature Precipitation Wind Pressure Humidity
    00:00 +23°C° 0 mm 1 mps 728 mmHg 80%
    01:00 +23°C° 0 mm 1 mps 728 mmHg 81%
    02:00 +23°C° 0 mm 1 mps 728 mmHg 82%
    03:00 +22°C° 0 mm 1 mps 728 mmHg 83%
    04:00 +22°C° 0 mm 1 mps 728 mmHg 84%
    05:00 +22°C° 0 mm 1 mps 728 mmHg 84%
    06:00 +23°C° 0 mm 1 mps 728 mmHg 80%
    07:00 +23°C° 0 mm 1 mps 728 mmHg 75%
    08:00 +24°C° 0 mm 2 mps 729 mmHg 70%
    09:00 +25°C° 0.1 mm 2 mps 729 mmHg 64%
    10:00 +26°C° 0.1 mm 2 mps 729 mmHg 58%
    11:00 +27°C° 0.1 mm 3 mps 729 mmHg 51%
    12:00 +27°C° 0.1 mm 3 mps 728 mmHg 50%
    13:00 +28°C° 0.1 mm 4 mps 728 mmHg 50%
    14:00 +28°C° 0.1 mm 4 mps 728 mmHg 49%
    15:00 +27°C° 0 mm 4 mps 728 mmHg 54%
    16:00 +26°C° 0 mm 4 mps 728 mmHg 59%
    17:00 +25°C° 0 mm 3 mps 728 mmHg 64%
    18:00 +25°C° 0 mm 2 mps 728 mmHg 67%
    19:00 +24°C° 0 mm 2 mps 728 mmHg 69%
    20:00 +24°C° 0 mm 1 mps 728 mmHg 71%
    21:00 +24°C° 0 mm 1 mps 728 mmHg 72%
    22:00 +23°C° 0 mm 1 mps 728 mmHg 74%
    23:00 +23°C° 0 mm 1 mps 728 mmHg 75%

    Day after tomorrow, 21 October, Sunday

    Time Temperature Precipitation Wind Pressure Humidity
    00:00 +23°C° 0 mm 1 mps 728 mmHg 76%
    01:00 +22°C° 0 mm 1 mps 727 mmHg 77%
    02:00 +22°C° 0 mm 1 mps 727 mmHg 78%
    03:00 +22°C° 0 mm 1 mps 727 mmHg 78%
    04:00 +22°C° 0 mm 1 mps 727 mmHg 78%
    05:00 +22°C° 0 mm 1 mps 727 mmHg 78%
    06:00 +22°C° 0 mm 1 mps 728 mmHg 73%
    07:00 +23°C° 0 mm 1 mps 728 mmHg 69%
    08:00 +24°C° 0 mm 1 mps 729 mmHg 64%
    09:00 +25°C° 0 mm 2 mps 729 mmHg 59%
    10:00 +26°C° 0 mm 2 mps 729 mmHg 54%
    11:00 +27°C° 0 mm 2 mps 729 mmHg 50%
    12:00 +28°C° 0 mm 3 mps 728 mmHg 47%
    13:00 +28°C° 0 mm 3 mps 728 mmHg 45%
    14:00 +29°C° 0 mm 3 mps 728 mmHg 42%
    15:00 +28°C° 0 mm 3 mps 727 mmHg 46%
    16:00 +27°C° 0 mm 2 mps 727 mmHg 49%
    17:00 +26°C° 0 mm 2 mps 727 mmHg 52%
    18:00 +26°C° 0 mm 2 mps 727 mmHg 56%
    19:00 +25°C° 0 mm 1 mps 728 mmHg 59%
    20:00 +24°C° 0 mm 1 mps 728 mmHg 62%
    21:00 +24°C° 0 mm 1 mps 728 mmHg 62%
    22:00 +24°C° 0 mm 1 mps 728 mmHg 62%
    23:00 +24°C° 0 mm 1 mps 728 mmHg 62%

    22 October, Monday

    Time Temperature Precipitation Wind Pressure Humidity
    00:00 +23°C° 0 mm 1 mps 727 mmHg 60%
    01:00 +23°C° 0 mm 1 mps 727 mmHg 59%
    02:00 +23°C° 0 mm 1 mps 727 mmHg 57%
    03:00 +23°C° 0 mm 2 mps 727 mmHg 55%
    04:00 +23°C° 0 mm 2 mps 727 mmHg 53%
    05:00 +23°C° 0 mm 2 mps 727 mmHg 51%
    06:00 +24°C° 0 mm 2 mps 728 mmHg 46%
    07:00 +25°C° 0 mm 3 mps 728 mmHg 41%
    08:00 +26°C° 0 mm 3 mps 728 mmHg 36%
    09:00 +28°C° 0 mm 3 mps 728 mmHg 31%
    10:00 +30°C° 0 mm 3 mps 728 mmHg 27%
    11:00 +33°C° 0 mm 3 mps 728 mmHg 22%
    12:00 +33°C° 0 mm 3 mps 727 mmHg 21%
    13:00 +34°C° 0 mm 3 mps 727 mmHg 21%
    14:00 +34°C° 0 mm 3 mps 726 mmHg 20%
    15:00 +33°C° 0 mm 3 mps 726 mmHg 22%
    16:00 +31°C° 0 mm 3 mps 726 mmHg 25%
    17:00 +29°C° 0 mm 2 mps 726 mmHg 28%
    18:00 +29°C° 0 mm 2 mps 726 mmHg 28%
    19:00 +28°C° 0 mm 2 mps 726 mmHg 29%
    20:00 +28°C° 0 mm 1 mps 727 mmHg 29%
    21:00 +27°C° 0 mm 1 mps 727 mmHg 29%
    22:00 +27°C° 0 mm 1 mps 726 mmHg 29%
    23:00 +26°C° 0 mm 1 mps 726 mmHg 30%

    23 October, Tuesday

    Time Temperature Precipitation Wind Pressure Humidity
    00:00 +26°C° 0.1 mm 1 mps 726 mmHg 31%
    01:00 +26°C° 0.1 mm 1 mps 726 mmHg 32%
    02:00 +25°C° 0.1 mm 1 mps 726 mmHg 33%
    03:00 +25°C° 0.3 mm 1 mps 726 mmHg 35%
    04:00 +25°C° 0.3 mm 1 mps 726 mmHg 36%
    05:00 +24°C° 0.3 mm 1 mps 726 mmHg 37%
    06:00 +25°C° 0.2 mm 1 mps 726 mmHg 35%
    07:00 +26°C° 0.2 mm 1 mps 727 mmHg 33%
    08:00 +26°C° 0.2 mm 1 mps 727 mmHg 30%
    09:00 +27°C° 0 mm 1 mps 727 mmHg 29%
    10:00 +29°C° 0 mm 1 mps 727 mmHg 28%
    11:00 +30°C° 0 mm 2 mps 727 mmHg 27%
    12:00 +30°C° 0 mm 2 mps 727 mmHg 27%
    13:00 +31°C° 0 mm 3 mps 726 mmHg 28%
    14:00 +31°C° 0 mm 3 mps 726 mmHg 29%
    15:00 +30°C° 0 mm 3 mps 726 mmHg 35%
    16:00 +29°C° 0 mm 3 mps 726 mmHg 41%
    17:00 +27°C° 0 mm 3 mps 726 mmHg 47%
    18:00 +27°C° 0 mm 2 mps 726 mmHg 52%
    19:00 +26°C° 0 mm 2 mps 726 mmHg 57%
    20:00 +25°C° 0 mm 2 mps 726 mmHg 63%
    21:00 +25°C° 0.1 mm 1 mps 726 mmHg 65%
    22:00 +24°C° 0.1 mm 1 mps 726 mmHg 68%
    23:00 +24°C° 0.1 mm 1 mps 726 mmHg 70%

    24 October, Wednesday

    Time Temperature Precipitation Wind Pressure Humidity
    00:00 +24°C° 0 mm 1 mps 726 mmHg 71%
    01:00 +21°C° 0 mm 0 mps 726 mmHg 71%
    02:00 +21°C° 0 mm 0 mps 726 mmHg 72%
    03:00 +23°C° 0.2 mm 1 mps 726 mmHg 73%
    04:00 +23°C° 0.2 mm 1 mps 726 mmHg 73%
    05:00 +23°C° 0.2 mm 1 mps 726 mmHg 74%
    06:00 +23°C° 0.2 mm 2 mps 726 mmHg 69%
    07:00 +24°C° 0.2 mm 2 mps 726 mmHg 64%
    08:00 +25°C° 0.2 mm 2 mps 727 mmHg 59%
    09:00 +26°C° 0 mm 3 mps 727 mmHg 53%
    10:00 +27°C° 0 mm 4 mps 726 mmHg 47%
    11:00 +28°C° 0 mm 4 mps 726 mmHg 41%
    12:00 +28°C° 0.1 mm 5 mps 726 mmHg 40%
    13:00 +28°C° 0.1 mm 5 mps 726 mmHg 38%
    14:00 +29°C° 0.1 mm 5 mps 725 mmHg 37%
    15:00 +28°C° 0.1 mm 5 mps 725 mmHg 41%
    16:00 +27°C° 0.1 mm 4 mps 725 mmHg 44%
    17:00 +26°C° 0.1 mm 4 mps 725 mmHg 48%
    18:00 +25°C° 0 mm 3 mps 725 mmHg 50%
    19:00 +25°C° 0 mm 2 mps 725 mmHg 53%
    20:00 +24°C° 0 mm 1 mps 726 mmHg 56%
    21:00 +24°C° 0 mm 1 mps 726 mmHg 55%
    22:00 +24°C° 0 mm 1 mps 726 mmHg 55%
    23:00 +24°C° 0 mm 1 mps 726 mmHg 55%
    Show more